Flag for Germany Weather past 2 weeks in Krefeld, North Rhine-Westphalia, Germany

Now
52 °F

Passing clouds.


Feels Like: 47 °F
Forecast: 38 / 46 °F
Wind: 15 mph from Southwest

Location: Monchengladbach Airport

Current Time: Mar 1, 2015 at 2:15:01 PM

Latest Report: Mar 1, 2015 at 1:50 PM


Visibility: N/A

Pressure: 29.59 "Hg

Humidity: 62%

Dew point: 39 °F

Location of KrefeldLocation

Historic Weather in Krefeld — Graph

°F

Krefeld temperature yesterday

Maximum temperature yesterday: 48 °F (at 3:20 PM)
Minimum temperature yesterday: 30 °F (at 7:20 AM)
Average temperature yesterday: 42 °F

Past Weeks' High & Low Weather Summary

 TemperatureHumidityPressure
High52 °F (Feb 14, 2:50 PM)100% (Feb 17, 7:50 AM)30.77 "Hg (Feb 17, 7:50 AM)
Low30 °F (Feb 15, 7:50 AM)50% (Feb 28, 4:50 PM)29.45 "Hg (Feb 21, 8:20 AM)
Average42 °F81%30.00 "Hg
* Reported Feb 14 12:20 PM — Mar 1 12:50 PM, Krefeld, Weather by CustomWeather, © 2015

Note: Actual official high and low records may vary slightly from our data, if they occured in-between our weather recording intervals... More about our weather records

Advertising

Krefeld weather history for previous 24 hours

 ConditionsComfort  
Time TempWeatherWind HumidityBarometerVisibility
12:50 PM
Sun, Mar 1
52 °FPassing clouds.13 mph54%29.62 "HgN/A
12:20 PM52 °FPassing clouds.14 mph54%29.62 "HgN/A
11:50 AM52 °FPassing clouds.14 mph58%29.62 "HgN/A
11:20 AM52 °FPassing clouds.14 mph62%29.62 "HgN/A
10:50 AM52 °FPassing clouds.16 mph62%29.59 "HgN/A
10:20 AM52 °FPassing clouds.15 mph67%29.59 "HgN/A
9:50 AM50 °FScattered showers. Passing clouds.13 mph76%29.59 "HgN/A
9:20 AM48 °FScattered clouds.13 mph87%29.59 "HgN/A
8:50 AM46 °FScattered clouds.10 mph93%29.56 "HgN/A
8:20 AM46 °FBroken clouds.12 mph93%29.56 "HgN/A
7:50 AM45 °FLight rain. Fog.10 mph100%29.56 "Hg2 mi
8:20 PM
Sat, Feb 28
43 °FPassing clouds.12 mph61%29.89 "HgN/A
7:50 PM43 °FPassing clouds.10 mph61%29.89 "HgN/A
7:20 PM43 °FPassing clouds.8 mph61%29.92 "HgN/A
6:50 PM43 °FPassing clouds.8 mph61%29.92 "HgN/A
6:20 PM45 °FClear.8 mph57%29.92 "Hg10 mi
5:50 PM46 °FClear.9 mph53%29.92 "Hg10 mi
5:20 PM46 °FClear.10 mph53%29.95 "Hg10 mi
4:50 PM48 °FClear.10 mph50%29.95 "Hg10 mi
4:20 PM48 °FClear.10 mph54%29.95 "Hg10 mi
3:50 PM48 °FPassing clouds.10 mph54%29.98 "HgN/A
3:20 PM48 °FPassing clouds.10 mph58%29.98 "HgN/A
2:50 PM46 °FClear.10 mph57%30.01 "Hg10 mi
2:20 PM46 °FClear.12 mph57%30.04 "Hg10 mi
Weather by CustomWeather, © 2015

See weather overviewHow to use our weather pages